sat.trackr.live / text

‹ back to catalog

STARLINK-30456

NORAD 57943 · 2023-148J

PAYLOAD ACTIVE UNKNOWN

§ Identity

Operator
Country
US
Launch date
2023-09-25
Launch site
AFWTR
Launch vehicle
Mass (kg)
RCS (m²)

Purposes: comms

External: N2YO · Heavens-Above · Gunter

§ Orbital elements

Epoch: 2026-05-25T01:39:09.707040Z

Period
94.11 min
Inclination
53.1615°
Eccentricity
0.0001339
Mean motion
15.30191843 rev/d
Perigee alt
474.3 km
Apogee alt
476.2 km
Semi-major
6,853.4 km
B*
2.5873e-5
RAAN
29.6982°
Arg perigee
98.0985°
Mean anomaly
262.0168°
Rev number
15,011

§ Raw data

STARLINK-304561 57943U 23148J   26145.06886235  .00000407  00000+0  25873-4 0  99912 57943  53.1615  29.6982 0001339  98.0985 262.0168 15.30191843150110

JSON: /api/v1/satellites/57943 · /tle

For live sub-satellite position, see the globe view (requires WebGL).

§ Visibility from observer

Set your observer location to see the next 7 days of passes ≥ 10°. The values pass through the URL so the page stays shareable.

No JS? Fill the form by hand. The geolocation button needs JavaScript.